• In Austria
  • List of Countries
  • For 7 days
  • Water Temperature
  • Satellite Maps
  • Weather Map
  • News
  • Weather Widgets
  • user-avatar
    Login

    Hourly Weather Chyzhychi

    Today, 22 October, Monday

    Time Temperature Precipitation Wind Pressure Humidity
    00:00 +6°C° 0 mm 1 mps 741 mmHg 80%
    01:00 +5°C° 0 mm 1 mps 741 mmHg 82%
    02:00 +4°C° 0 mm 0 mps 741 mmHg 84%
    03:00 +3°C° 0 mm 0 mps 741 mmHg 85%
    04:00 +3°C° 0 mm 0 mps 741 mmHg 86%
    05:00 +3°C° 0 mm 0 mps 740 mmHg 87%
    06:00 +3°C° 0 mm 0 mps 741 mmHg 86%
    07:00 +3°C° 0 mm 0 mps 741 mmHg 85%
    08:00 +4°C° 0 mm 0 mps 741 mmHg 83%
    09:00 +6°C° 0 mm 0 mps 741 mmHg 77%
    10:00 +7°C° 0 mm 0 mps 740 mmHg 70%
    11:00 +9°C° 0 mm 0 mps 740 mmHg 63%
    12:00 +11°C° 0 mm 1 mps 740 mmHg 59%
    13:00 +11°C° 0 mm 1 mps 739 mmHg 56%
    14:00 +12°C° 0 mm 1 mps 739 mmHg 53%
    15:00 +11°C° 0 mm 1 mps 739 mmHg 57%
    16:00 +10°C° 0 mm 1 mps 738 mmHg 61%
    17:00 +9°C° 0 mm 1 mps 738 mmHg 65%
    18:00 +8°C° 0 mm 1 mps 738 mmHg 68%
    19:00 +7°C° 0 mm 1 mps 738 mmHg 71%
    20:00 +6°C° 0 mm 1 mps 738 mmHg 74%
    21:00 +5°C° 0 mm 2 mps 738 mmHg 76%
    22:00 +5°C° 0 mm 2 mps 738 mmHg 78%
    23:00 +5°C° 0 mm 2 mps 738 mmHg 80%

    Tomorrow, 23 October, Tuesday

    Time Temperature Precipitation Wind Pressure Humidity
    00:00 +5°C° 0 mm 2 mps 737 mmHg 79%
    01:00 +4°C° 0 mm 3 mps 737 mmHg 79%
    02:00 +5°C° 0 mm 3 mps 737 mmHg 78%
    03:00 +5°C° 0.1 mm 3 mps 737 mmHg 79%
    04:00 +5°C° 0.1 mm 3 mps 736 mmHg 81%
    05:00 +6°C° 0.1 mm 4 mps 736 mmHg 82%
    06:00 +6°C° 0.1 mm 4 mps 736 mmHg 84%
    07:00 +6°C° 0.1 mm 4 mps 736 mmHg 86%
    08:00 +6°C° 0.1 mm 4 mps 736 mmHg 88%
    09:00 +7°C° 0 mm 4 mps 736 mmHg 83%
    10:00 +7°C° 0 mm 5 mps 735 mmHg 77%
    11:00 +8°C° 0 mm 5 mps 735 mmHg 72%
    12:00 +8°C° 0 mm 5 mps 734 mmHg 68%
    13:00 +8°C° 0 mm 6 mps 733 mmHg 65%
    14:00 +9°C° 0 mm 6 mps 733 mmHg 61%
    15:00 +8°C° 0.2 mm 5 mps 732 mmHg 65%
    16:00 +7°C° 0.2 mm 5 mps 730 mmHg 70%
    17:00 +7°C° 0.2 mm 4 mps 729 mmHg 74%
    18:00 +7°C° 0.6 mm 4 mps 729 mmHg 77%
    19:00 +7°C° 0.6 mm 5 mps 728 mmHg 80%
    20:00 +7°C° 0.6 mm 5 mps 727 mmHg 83%
    21:00 +7°C° 0.4 mm 6 mps 726 mmHg 81%
    22:00 +6°C° 0.4 mm 7 mps 725 mmHg 80%
    23:00 +6°C° 0.4 mm 8 mps 724 mmHg 78%

    Day after tomorrow, 24 October, Wednesday

    Time Temperature Precipitation Wind Pressure Humidity
    00:00 +6°C° 0.5 mm 8 mps 723 mmHg 79%
    01:00 +6°C° 0.5 mm 8 mps 722 mmHg 79%
    02:00 +6°C° 0.5 mm 9 mps 721 mmHg 80%
    03:00 +6°C° 1.3 mm 9 mps 720 mmHg 81%
    04:00 +6°C° 1.3 mm 9 mps 719 mmHg 81%
    05:00 +7°C° 1.3 mm 9 mps 718 mmHg 82%
    06:00 +6°C° 3.1 mm 9 mps 718 mmHg 82%
    07:00 +5°C° 3.1 mm 8 mps 717 mmHg 82%
    08:00 +5°C° 3.1 mm 8 mps 717 mmHg 82%
    09:00 +3°C° 0.4 mm 9 mps 717 mmHg 76%
    10:00 +3°C° 0.4 mm 10 mps 718 mmHg 71%
    11:00 +3°C° 0.4 mm 11 mps 719 mmHg 65%
    12:00 +2°C° 0.1 mm 11 mps 719 mmHg 63%
    13:00 +2°C° 0.1 mm 11 mps 720 mmHg 60%
    14:00 +2°C° 0.1 mm 11 mps 720 mmHg 57%
    15:00 +2°C° 0.2 mm 11 mps 721 mmHg 59%
    16:00 +2°C° 0.2 mm 10 mps 721 mmHg 60%
    17:00 +2°C° 0.2 mm 10 mps 722 mmHg 62%
    18:00 +2°C° 0.1 mm 10 mps 722 mmHg 62%
    19:00 +1°C° 0.1 mm 10 mps 723 mmHg 62%
    20:00 +1°C° 0.1 mm 10 mps 723 mmHg 61%
    21:00 +1°C° 0.2 mm 10 mps 724 mmHg 63%
    22:00 +1°C° 0.2 mm 10 mps 724 mmHg 65%
    23:00 +1°C° 0.2 mm 10 mps 724 mmHg 67%

    25 October, Thursday

    Time Temperature Precipitation Wind Pressure Humidity
    00:00 +1°C° 0.2 mm 10 mps 725 mmHg 69%
    01:00 +1°C° 0.2 mm 10 mps 725 mmHg 70%
    02:00 +1°C° 0.2 mm 10 mps 725 mmHg 72%
    03:00 +1°C° 0.1 mm 9 mps 726 mmHg 72%
    04:00 +1°C° 0.1 mm 9 mps 726 mmHg 73%
    05:00 0°C° 0.1 mm 9 mps 727 mmHg 74%
    06:00 0°C° 0 mm 8 mps 727 mmHg 74%
    07:00 0°C° 0 mm 7 mps 727 mmHg 75%
    08:00 -1°C° 0 mm 7 mps 728 mmHg 76%
    09:00 0°C° 0 mm 7 mps 727 mmHg 74%
    10:00 +2°C° 0 mm 7 mps 727 mmHg 71%
    11:00 +3°C° 0 mm 7 mps 727 mmHg 68%
    12:00 +3°C° 0.9 mm 7 mps 726 mmHg 72%
    13:00 +3°C° 0.9 mm 7 mps 725 mmHg 76%
    14:00 +3°C° 0.9 mm 7 mps 725 mmHg 80%
    15:00 +4°C° 0.7 mm 8 mps 724 mmHg 81%
    16:00 +5°C° 0.7 mm 9 mps 724 mmHg 82%
    17:00 +6°C° 0.7 mm 9 mps 723 mmHg 84%
    18:00 +6°C° 0.6 mm 9 mps 724 mmHg 83%
    19:00 +6°C° 0.6 mm 9 mps 724 mmHg 82%
    20:00 +5°C° 0.6 mm 9 mps 724 mmHg 81%
    21:00 +5°C° 0.1 mm 8 mps 725 mmHg 83%
    22:00 +4°C° 0.1 mm 7 mps 726 mmHg 84%
    23:00 +4°C° 0.1 mm 7 mps 726 mmHg 86%

    26 October, Friday

    Time Temperature Precipitation Wind Pressure Humidity
    00:00 +4°C° 0 mm 7 mps 727 mmHg 87%
    01:00 +3°C° 0 mm 6 mps 727 mmHg 88%
    02:00 +3°C° 0 mm 6 mps 728 mmHg 89%
    03:00 +3°C° 0 mm 6 mps 728 mmHg 89%
    04:00 +3°C° 0 mm 6 mps 728 mmHg 89%
    05:00 +3°C° 0 mm 6 mps 729 mmHg 88%
    06:00 +3°C° 0 mm 6 mps 729 mmHg 88%
    07:00 +3°C° 0 mm 5 mps 729 mmHg 87%
    08:00 +3°C° 0 mm 5 mps 730 mmHg 87%
    09:00 +5°C° 0 mm 5 mps 730 mmHg 83%
    10:00 +6°C° 0 mm 5 mps 730 mmHg 79%
    11:00 +7°C° 0 mm 5 mps 731 mmHg 76%
    12:00 +7°C° 0 mm 5 mps 731 mmHg 74%
    13:00 +8°C° 0 mm 5 mps 731 mmHg 72%
    14:00 +8°C° 0 mm 4 mps 731 mmHg 71%
    15:00 +8°C° 0 mm 3 mps 731 mmHg 74%
    16:00 +8°C° 0 mm 3 mps 731 mmHg 77%
    17:00 +8°C° 0 mm 2 mps 731 mmHg 80%
    18:00 +7°C° 0 mm 2 mps 731 mmHg 82%
    19:00 +7°C° 0 mm 2 mps 731 mmHg 83%
    20:00 +5°C° 0 mm 3 mps 731 mmHg 84%
    21:00 +5°C° 0 mm 3 mps 731 mmHg 85%
    22:00 +5°C° 0 mm 3 mps 730 mmHg 85%
    23:00 +5°C° 0 mm 4 mps 730 mmHg 85%

    27 October, Saturday

    Time Temperature Precipitation Wind Pressure Humidity
    00:00 +5°C° 0 mm 4 mps 730 mmHg 85%
    01:00 +5°C° 0 mm 4 mps 730 mmHg 85%
    02:00 +5°C° 0 mm 4 mps 729 mmHg 85%
    03:00 +5°C° 0 mm 4 mps 729 mmHg 85%
    04:00 +5°C° 0 mm 4 mps 729 mmHg 85%
    05:00 +5°C° 0 mm 4 mps 728 mmHg 85%
    06:00 +5°C° 0 mm 4 mps 728 mmHg 84%
    07:00 +6°C° 0 mm 4 mps 728 mmHg 83%
    08:00 +7°C° 0 mm 4 mps 727 mmHg 82%
    09:00 +8°C° 0 mm 4 mps 727 mmHg 78%
    10:00 +10°C° 0 mm 5 mps 727 mmHg 74%
    11:00 +13°C° 0 mm 5 mps 727 mmHg 70%
    12:00 +13°C° 0 mm 5 mps 727 mmHg 72%
    13:00 +13°C° 0 mm 5 mps 727 mmHg 73%
    14:00 +13°C° 0 mm 5 mps 726 mmHg 74%
    15:00 +13°C° 0 mm 5 mps 726 mmHg 75%
    16:00 +13°C° 0 mm 4 mps 726 mmHg 76%
    17:00 +12°C° 0 mm 4 mps 725 mmHg 77%
    18:00 +12°C° 0 mm 4 mps 725 mmHg 76%
    19:00 +12°C° 0 mm 5 mps 725 mmHg 76%
    20:00 +12°C° 0 mm 5 mps 725 mmHg 75%
    21:00 +13°C° 0 mm 5 mps 725 mmHg 72%
    22:00 +13°C° 0 mm 6 mps 725 mmHg 69%
    23:00 +14°C° 0 mm 6 mps 725 mmHg 66%

    28 October, Sunday

    Time Temperature Precipitation Wind Pressure Humidity
    00:00 +14°C° 0 mm 6 mps 725 mmHg 66%
    01:00 +14°C° 0 mm 6 mps 724 mmHg 66%
    02:00 +14°C° 0 mm 6 mps 724 mmHg 66%
    03:00 +13°C° 0 mm 5 mps 724 mmHg 67%
    04:00 +13°C° 0 mm 5 mps 724 mmHg 68%
    05:00 +13°C° 0 mm 5 mps 723 mmHg 69%
    06:00 +13°C° 0 mm 5 mps 724 mmHg 68%
    07:00 +13°C° 0 mm 5 mps 724 mmHg 67%
    08:00 +13°C° 0 mm 5 mps 724 mmHg 66%
    09:00 +15°C° 0 mm 5 mps 725 mmHg 64%
    10:00 +16°C° 0 mm 6 mps 725 mmHg 62%
    11:00 +17°C° 0 mm 6 mps 726 mmHg 60%
    12:00 +17°C° 0 mm 5 mps 726 mmHg 61%
    13:00 +19°C° 0 mm 5 mps 727 mmHg 62%
    14:00 +19°C° 0 mm 4 mps 727 mmHg 64%
    15:00 +17°C° 0.2 mm 3 mps 728 mmHg 69%
    16:00 +16°C° 0.2 mm 3 mps 728 mmHg 75%
    17:00 +15°C° 0.2 mm 2 mps 729 mmHg 80%
    18:00 +15°C° 0.4 mm 2 mps 729 mmHg 83%
    19:00 +14°C° 0.4 mm 1 mps 730 mmHg 86%
    20:00 +14°C° 0.4 mm 1 mps 730 mmHg 89%
    21:00 +13°C° 0.3 mm 1 mps 730 mmHg 90%
    22:00 +13°C° 0.3 mm 1 mps 731 mmHg 91%
    23:00 +13°C° 0.3 mm 1 mps 731 mmHg 92%
    Show more